METAR EDWI 180550Z AUTO 23012KT 7000 NSC 06/00 Q1014=

Die Wetterinformationen haben nur informativen Charakter
und dürfen nicht zum Zwecke der Flugplanung benutzt werden.

Heute ist
Samstag, 18.11.2017
Sonnenaufgang
07:58 MEZ
Sonnenuntergang
16:26 MEZ

Platzöffnung
09:00 - 17:00 MEZ

StartseiteFlugplatzinfoFirmen & VereineWiking Helikopter Service

WIKING wurde im August 1975 von der VTG Vereinigte Tanklager und Transportmittel GmbH, Hamburg, einem Unternehmen der damaligen Preussag AG und dem norwegischen Hubschrauberunternehmen Helikopter Service A.S., Oslo gegründet.

Seit 2001 werden sämtliche Gesellschaftsanteile von der Linnhoff Schifffahrt GmbH & Co. KG gehalten. Zu dieser Gesellschaft gehören auch die URAG Unterweser Reederei GmbH und die RF Forschungsschiffahrt GmbH mit ihren Tochtergesellschaften.

Der Firmensitz der WIKING Helikopter Service GmbH befindet sich in Bremen. Die Operationsbasis liegt direkt an der Nordseeküste, auf dem JadeWeserAirport® (ehemals Flugplatz Wilhelmshaven-Mariensiel), nur 30 Flugminuten von Hamburg entfernt.

 

Wir können unsere Dienste für alle Häfen und Offshore Einrichtungen in der Region anbieten. In naher Zukunft wird der JadeWeserPort® in Wilhelmshaven vor den Toren der WIKING sein.

Seit 2008 arbeiten wir mit der AG Reederei Norden-Frisia (Norden, Norddeich) für den Geschäftsbereich Offshore-Windkraft zusammen.



Besuchen sie auch unsere Homepage  Wiking Helikopter Service

Go to top